Tracking 18871 objects as of 13-Dec-2017
HD Live streaming from Space Station
objects crossing your sky now

TDRS 3

Track TDRS 3 now!
TDRS 3 is classified as:


NORAD ID: 19548
Int'l Code: 1988-091B
Perigee: 35,630.2 km
Apogee: 35,954.8 km
Inclination: 14.4 °
Period: 1,436.0 minutes
Semi major axis: 42163 km
RCS: 38.9601 m2 (large)
Launch date: September 29, 1988
Source: United States (US)
Launch site: AIR FORCE EASTERN TEST RANGE (AFETR)

Backup; still partially operational.
aabbcc
Your satellite tracking list
Your tracking list is empty




NASA's NSSDC Master Catalog

Two Line Element Set (TLE):
1 19548U 88091B   17347.41869490 -.00000308  00000-0  00000+0 0  9997
2 19548  14.4472   6.1430 0038499 308.2444 216.3473  1.00276296 94207
Source of the keplerian elements: AFSPC